Date,TemperatureHighF,TemperatureAvgF,TemperatureLowF,DewpointHighF,DewpointAvgF,DewpointLowF,HumidityHigh,HumidityAvg,HumidityLow,PressureMaxIn,PressureMinIn,WindSpeedMaxMPH,WindSpeedAvgMPH,GustSpeedMaxMPH,PrecipitationSumIn
2013-1-1,37,27,18,14,12,9,72,55,38,30.29,30.15,8,2,9,0.00
2013-1-2,37,26,17,16,13,10,75,60,40,30.31,30.18,9,2,10,0.00
2013-1-3,38,26,16,16,9,1,75,52,24,30.40,30.28,11,1,11,0.00
2013-1-4,37,25,16,12,8,5,66,50,34,30.36,30.23,8,1,9,0.00
2013-1-5,37,25,15,14,10,6,71,55,35,30.41,30.27,8,2,8,0.00
2013-1-6,35,25,18,16,12,10,72,59,38,30.34,30.09,9,2,9,0.00
2013-1-7,41,29,20,17,14,12,72,55,35,30.15,30.06,11,2,11,0.00
2013-1-8,44,30,18,19,15,11,75,56,34,30.32,30.08,10,2,10,0.00
2013-1-9,46,33,22,25,20,15,77,62,41,30.40,30.10,8,2,8,0.00
2013-1-10,45,34,28,28,24,19,84,66,37,30.10,29.62,32,3,32,0.00
2013-1-11,34,29,20,19,6,1,53,38,27,29.98,29.70,31,9,31,0.00
2013-1-12,31,22,12,10,6,3,72,50,32,30.03,29.94,9,2,9,0.00
2013-1-13,28,22,12,5,2,-1,63,41,30,30.06,29.99,12,2,12,0.00
2013-1-14,27,20,10,1,-3,-6,54,37,23,30.25,30.06,16,2,16,0.00
2013-1-15,30,19,9,3,-1,-5,54,42,28,30.42,30.25,8,2,8,0.00
2013-1-16,36,24,13,11,6,2,61,47,32,30.49,30.39,9,2,9,0.00
2013-1-17,40,27,16,15,11,7,70,53,34,30.53,30.40,9,2,9,0.00
2013-1-18,42,28,17,18,13,9,72,55,33,30.45,30.32,8,2,8,0.00
2013-1-19,44,29,17,19,15,10,75,57,35,30.47,30.34,8,2,9,0.00
2013-1-20,43,29,18,21,16,12,78,60,37,30.39,30.26,8,2,8,0.00
2013-1-21,44,30,17,21,16,11,78,58,35,30.40,30.28,8,2,9,0.00
2013-1-22,46,31,20,22,16,13,74,56,34,30.39,30.29,7,1,7,0.00
2013-1-23,43,32,21,21,18,14,75,57,39,30.42,30.31,7,1,7,0.00
2013-1-24,43,38,34,30,23,20,70,55,44,30.33,30.27,6,1,6,0.00
2013-1-25,48,42,38,34,32,29,75,67,55,30.32,30.17,8,1,9,0.00
2013-1-26,42,41,39,40,38,34,94,90,71,30.17,29.90,5,0,5,0.69
2013-1-27,50,43,37,45,38,26,97,85,43,29.97,29.82,20,2,21,0.01
2013-1-28,42,37,30,36,28,9,90,70,40,29.95,29.83,27,5,27,0.03
2013-1-29,43,33,23,23,15,8,69,47,39,30.17,29.93,36,7,36,0.00
2013-1-30,49,38,27,28,22,16,80,54,37,30.25,30.16,18,3,20,0.00
2013-1-31,50,38,28,32,28,24,87,69,43,30.32,30.23,10,2,10,0.00
2013-2-1,51,38,27,31,28,23,87,69,44,30.33,30.22,9,2,9,0.00
2013-2-2,49,38,28,33,29,25,87,72,48,30.42,30.31,9,2,9,0.00
2013-2-3,47,39,32,32,30,27,83,72,47,30.32,30.10,8,2,9,0.00
2013-2-4,49,37,27,34,29,24,89,73,46,30.20,30.09,12,2,12,0.01
2013-2-5,53,39,28,33,29,25,87,68,39,30.16,29.98,9,2,10,0.00
2013-2-6,57,44,33,33,30,27,79,61,33,30.10,29.94,14,2,14,0.00
2013-2-7,53,42,29,30,27,24,83,58,34,30.20,29.96,12,3,12,0.00
2013-2-8,57,46,34,31,21,5,68,41,15,29.96,29.69,40,8,40,0.00
2013-2-9,46,38,32,27,21,16,74,53,32,29.89,29.69,26,6,26,0.00
2013-2-10,39,34,27,29,25,20,89,71,48,29.96,29.88,24,5,24,0.11
2013-2-11,40,30,21,24,20,16,82,67,44,30.14,29.96,7,2,8,0.01
2013-2-12,42,31,22,22,16,8,74,55,30,30.28,30.14,11,2,11,0.00
2013-2-13,47,34,24,25,21,18,80,61,34,30.28,30.17,10,2,10,0.00
2013-2-14,54,38,26,27,24,21,83,60,29,30.29,30.16,9,2,9,0.00
2013-2-15,54,39,27,24,21,16,77,51,23,30.41,30.29,9,2,9,0.00
2013-2-16,55,39,26,24,21,18,76,50,27,30.41,30.11,8,2,9,0.00
2013-2-17,61,44,30,24,18,3,70,40,10,30.11,29.79,25,4,26,0.00
2013-2-18,50,40,27,20,9,-1,51,30,13,30.15,29.98,17,4,17,0.00
2013-2-19,49,38,25,18,14,11,61,40,24,30.02,29.65,12,2,12,0.00
2013-2-20,47,43,38,28,23,12,64,47,27,29.75,29.60,20,4,20,0.00
2013-2-21,50,41,34,27,21,13,66,45,27,29.98,29.75,20,6,20,0.00
2013-2-22,48,37,24,16,8,4,49,31,19,30.11,29.97,24,4,24,0.00
2013-2-23,51,37,27,27,15,8,68,42,26,30.10,29.77,38,5,38,0.00
2013-2-24,44,35,28,13,8,5,43,33,24,30.12,29.92,26,9,26,0.00
2013-2-25,48,36,23,11,9,6,55,34,19,30.21,29.96,19,3,19,0.00
2013-2-26,48,39,30,14,3,-13,41,23,8,30.22,29.99,27,7,28,0.00
2013-2-27,46,34,22,9,5,1,50,31,16,30.33,30.22,11,2,11,0.00
2013-2-28,53,37,23,10,6,1,46,29,12,30.43,30.31,10,2,10,0.00
2013-3-1,63,44,28,23,16,6,49,34,21,30.45,30.32,10,2,11,0.00
2013-3-2,62,47,31,27,24,20,67,42,24,30.42,30.15,11,2,11,0.00
2013-3-3,69,53,40,29,25,22,54,36,19,30.15,29.86,18,3,20,0.00
2013-3-4,63,53,40,33,23,12,49,32,15,30.17,29.87,27,6,27,0.00
2013-3-5,57,44,30,19,16,12,54,34,18,30.28,30.06,11,2,11,0.00
2013-3-6,70,50,32,26,18,12,55,31,13,30.08,29.87,22,4,23,0.00
2013-3-7,70,55,40,24,17,6,51,25,8,29.99,29.83,24,4,26,0.00
2013-3-8,58,46,34,40,33,20,90,63,28,29.91,29.71,28,6,30,0.65
2013-3-9,46,39,33,38,34,31,93,83,69,30.12,29.82,10,2,10,0.21
2013-3-10,55,45,37,36,28,22,87,53,32,30.26,30.12,12,2,13,0.00
2013-3-11,60,46,33,32,27,20,80,50,23,30.25,30.10,10,2,10,0.00
2013-3-12,64,50,36,34,30,25,76,50,24,30.27,30.16,13,3,13,0.00
2013-3-13,68,52,38,35,31,21,73,48,18,30.36,30.25,11,3,12,0.00
2013-3-14,72,55,39,33,29,23,68,41,16,30.35,30.19,10,2,10,0.00
2013-3-15,78,59,43,33,28,22,58,33,13,30.20,29.96,9,2,9,0.00
2013-3-16,72,60,50,34,28,21,50,31,17,29.97,29.85,29,3,31,0.00
2013-3-17,70,59,45,29,14,-5,52,22,5,29.94,29.82,30,7,31,0.00
2013-3-18,68,56,40,18,8,-7,40,18,6,30.07,29.94,21,4,21,0.00
2013-3-19,63,55,46,28,21,8,45,27,15,30.17,30.00,19,3,21,0.00
2013-3-20,69,56,44,32,26,22,59,34,18,30.15,29.88,20,3,20,0.00
2013-3-21,70,57,44,31,20,8,53,27,11,29.89,29.80,23,5,23,0.00
2013-3-22,67,54,44,16,-3,-39,33,14,1,29.91,29.72,30,6,30,0.00
2013-3-23,50,41,33,14,1,-12,32,21,8,30.13,29.91,31,7,32,0.00
2013-3-24,59,44,29,12,5,0,36,21,10,30.14,29.98,16,3,16,0.00
2013-3-25,60,47,32,18,11,6,41,25,14,30.18,30.02,14,3,14,0.00
2013-3-26,65,51,39,22,17,13,42,28,14,30.07,29.89,10,2,10,0.00
2013-3-27,73,57,39,23,16,10,46,23,10,30.04,29.93,13,4,14,0.00
2013-3-28,72,59,42,29,21,14,41,24,13,30.11,30.00,13,3,14,0.00
2013-3-29,76,61,46,32,28,19,54,31,13,30.19,30.07,16,2,16,0.00
2013-3-30,75,61,46,31,28,23,48,30,15,30.17,30.03,11,3,12,0.00
2013-3-31,76,61,47,32,30,25,52,32,17,30.11,29.94,24,3,27,0.00
2013-4-1,74,61,51,32,23,-7,44,27,4,30.00,29.87,35,8,35,0.00
2013-4-2,66,53,42,39,30,26,57,42,24,30.07,29.94,20,3,20,0.00
2013-4-3,72,57,42,34,26,18,63,35,14,30.17,30.06,12,2,12,0.00
2013-4-4,76,60,44,27,21,12,45,24,9,30.19,29.99,11,3,12,0.00
2013-4-5,79,68,58,30,23,15,27,19,10,30.00,29.88,25,6,28,0.00
2013-4-6,79,65,49,30,24,9,45,23,7,30.02,29.87,24,5,27,0.00
2013-4-7,78,64,48,28,16,-2,38,19,5,29.95,29.70,31,5,31,0.00
2013-4-8,66,53,42,40,32,9,84,51,14,29.70,29.41,38,9,40,0.18
2013-4-9,54,47,41,36,26,19,81,47,27,30.03,29.55,30,10,30,0.04
2013-4-10,57,46,34,28,22,15,68,41,21,30.14,29.99,17,4,19,0.00
2013-4-11,65,53,42,38,30,26,66,45,24,30.02,29.85,14,2,14,0.00
2013-4-12,71,56,39,37,22,10,69,31,10,30.00,29.86,13,3,13,0.00
2013-4-13,78,62,42,26,22,15,51,25,10,29.92,29.63,29,7,31,0.00
2013-4-14,76,66,54,32,25,14,42,23,10,29.78,29.59,26,7,27,0.00
2013-4-15,78,67,55,32,24,4,40,22,6,29.67,29.56,36,10,36,0.00
2013-4-16,65,56,45,29,26,20,50,32,19,29.85,29.59,45,13,45,0.00
2013-4-17,56,46,41,28,21,11,52,38,19,30.15,29.83,27,8,27,0.00
2013-4-18,57,45,36,14,8,1,37,24,10,30.26,30.14,13,4,14,0.00
2013-4-19,67,52,34,18,13,8,42,23,10,30.28,29.99,15,3,15,0.00
2013-4-20,71,60,46,26,19,13,33,21,12,30.11,29.98,22,6,24,0.00
2013-4-21,80,62,43,26,20,7,47,23,7,30.17,29.95,27,5,30,0.00
2013-4-22,83,68,48,26,17,8,34,16,6,30.01,29.80,33,7,34,0.00
2013-4-23,64,55,44,25,6,-10,27,15,5,30.13,29.88,24,7,24,0.00
2013-4-24,69,55,40,10,0,-17,25,12,3,30.12,30.01,20,4,21,0.00
2013-4-25,75,59,42,26,14,6,33,18,9,30.05,29.92,26,3,26,0.00
2013-4-26,79,63,46,25,10,-9,34,16,3,30.20,30.04,13,3,13,0.00
2013-4-27,80,64,45,18,9,-17,31,14,3,30.25,30.07,13,3,13,0.00
2013-4-28,85,67,47,24,14,1,30,15,4,30.12,29.91,10,2,10,0.00
2013-4-29,90,74,53,26,15,-10,30,13,3,29.97,29.76,28,6,30,0.00
2013-4-30,90,79,63,25,4,-25,19,7,1,29.83,29.70,30,10,31,0.00
2013-5-1,72,63,52,28,-4,-36,23,9,1,30.38,29.82,27,10,27,0.00
2013-5-2,66,55,46,16,8,-1,26,16,8,30.51,30.33,19,5,19,0.00
2013-5-3,74,58,39,12,5,-13,31,14,3,30.33,29.94,17,3,20,0.00
2013-5-4,83,66,44,15,2,-28,25,10,1,29.94,29.75,19,4,20,0.00
2013-5-5,76,67,56,30,18,4,35,17,8,29.96,29.84,31,5,31,0.00
2013-5-6,74,63,52,40,31,25,53,32,18,30.00,29.90,28,4,32,0.00
2013-5-7,70,58,46,46,38,32,84,51,26,30.05,29.89,28,6,28,0.27
2013-5-8,69,57,45,44,39,33,86,55,28,30.09,30.01,14,2,14,0.00
2013-5-9,67,58,50,44,41,36,72,53,37,30.13,30.04,21,4,21,0.00
2013-5-10,78,64,48,45,39,30,81,46,19,30.23,30.10,23,3,23,0.00
2013-5-11,81,67,52,40,33,19,63,32,10,30.31,30.19,17,3,17,0.00
2013-5-12,88,71,53,35,27,16,43,22,8,30.28,30.11,13,3,13,0.00
2013-5-13,91,74,55,32,25,9,38,19,5,30.22,30.03,14,2,14,0.00
2013-5-14,96,79,59,33,27,19,36,17,7,30.06,29.89,24,4,24,0.00
2013-5-15,90,78,61,40,21,-12,34,15,2,30.00,29.86,27,7,31,0.00
2013-5-16,92,76,58,32,22,10,31,15,7,29.98,29.80,24,6,25,0.00
2013-5-17,80,71,62,35,26,17,32,19,10,29.96,29.87,27,9,28,0.00
2013-5-18,78,66,54,38,32,27,45,29,18,30.02,29.93,28,5,29,0.00
2013-5-19,76,65,55,41,34,25,57,33,17,30.04,29.91,29,6,29,0.00
2013-5-20,78,65,50,35,31,25,52,30,15,30.08,29.98,23,5,23,0.00
2013-5-21,83,68,52,36,29,19,50,27,11,30.08,29.84,14,2,14,0.00
2013-5-22,92,77,56,34,19,6,30,13,5,29.87,29.71,32,8,32,0.00
2013-5-23,90,77,64,30,18,3,24,12,4,29.93,29.78,30,10,33,0.00
2013-5-24,89,73,56,19,11,2,23,10,4,30.04,29.90,22,5,22,0.00
2013-5-25,92,76,60,24,12,-3,23,11,3,30.03,29.88,27,7,27,0.00
2013-5-26,89,77,60,25,16,7,24,11,5,30.03,29.87,22,6,22,0.00
2013-5-27,87,75,58,24,19,12,22,13,7,30.00,29.80,17,3,17,0.00
2013-5-28,88,74,63,38,28,22,33,19,11,29.85,29.66,35,7,35,0.00
2013-5-29,84,69,56,35,29,20,42,25,11,29.89,29.75,31,6,31,0.00
2013-5-30,88,74,56,34,24,12,36,18,6,29.95,29.82,31,7,33,0.00
2013-5-31,89,76,62,30,20,3,26,14,5,30.10,29.89,24,4,25,0.00
2013-6-1,84,70,52,20,11,0,20,11,4,30.18,30.00,15,3,15,0.00
2013-6-2,98,77,56,28,18,10,28,12,5,30.03,29.79,17,4,17,0.00
2013-6-3,96,82,62,36,26,17,24,14,6,29.93,29.84,23,4,23,0.00
2013-6-4,98,83,63,33,22,-7,26,13,2,30.00,29.87,24,4,24,0.00
2013-6-5,96,82,63,35,27,16,29,15,7,30.04,29.90,25,4,26,0.00
2013-6-6,98,82,62,32,23,14,26,13,5,30.04,29.88,16,3,17,0.00
2013-6-7,100,83,65,34,24,10,28,13,4,30.03,29.85,25,3,25,0.00
2013-6-8,103,86,66,34,27,18,25,13,6,29.97,29.84,22,5,22,0.00
2013-6-9,103,87,66,34,22,12,24,11,4,30.04,29.88,17,3,17,0.00
2013-6-10,103,88,69,33,7,-23,22,7,1,30.02,29.86,28,7,28,0.00
2013-6-11,98,85,71,35,20,9,22,10,4,30.05,29.94,24,4,24,0.00
2013-6-12,100,86,68,33,26,19,25,12,6,30.10,29.97,27,4,27,0.00
2013-6-13,100,87,73,36,18,-24,21,10,1,30.03,29.89,34,7,34,0.00
2013-6-14,100,82,61,27,11,-20,25,9,1,30.04,29.86,19,4,19,0.00
2013-6-15,98,82,66,40,27,11,25,14,7,30.04,29.90,24,4,25,0.00
2013-6-16,99,85,70,39,25,9,28,13,4,30.10,29.95,24,5,24,0.00
2013-6-17,99,84,62,26,15,2,22,9,3,30.09,29.92,18,3,18,0.00
2013-6-18,100,84,62,22,5,-21,19,7,1,30.01,29.81,24,6,24,0.00
2013-6-19,97,84,67,22,7,-13,18,6,2,29.88,29.78,29,8,31,0.00
2013-6-20,97,81,62,21,8,-9,20,8,2,29.95,29.81,35,6,37,0.00
2013-6-21,96,82,63,26,15,7,19,9,4,29.99,29.85,26,6,27,0.00
2013-6-22,96,82,68,32,20,7,20,11,4,29.98,29.85,22,4,23,0.00
2013-6-23,96,82,63,28,18,-7,24,11,2,29.95,29.77,24,6,25,0.00
2013-6-24,94,82,70,31,20,5,19,11,5,29.96,29.84,28,9,28,0.00
2013-6-25,95,82,66,38,27,13,20,14,9,30.06,29.94,15,4,15,0.00
2013-6-26,100,86,67,41,36,30,38,19,9,30.13,30.01,13,3,13,0.00
2013-6-27,105,89,72,44,37,25,33,17,7,30.19,30.06,10,2,12,0.00
2013-6-28,108,92,72,42,32,1,29,15,2,30.15,29.99,22,4,22,0.00
2013-6-29,107,92,79,42,36,25,25,15,6,30.09,29.96,25,3,25,0.00
2013-6-30,106,89,74,43,38,28,32,18,8,30.08,29.94,46,3,46,0.00
2013-7-1,104,89,73,47,40,19,29,19,6,30.11,29.97,15,3,15,0.00
2013-7-2,102,90,76,44,40,30,29,18,9,30.08,29.93,26,4,26,0.00
2013-7-3,106,90,75,50,42,24,35,20,7,30.04,29.86,21,3,22,0.00
2013-7-4,104,91,76,47,41,33,33,19,9,29.96,29.84,29,4,29,0.00
2013-7-5,100,85,76,57,50,39,48,31,16,29.99,29.86,29,4,35,0.01
2013-7-6,94,80,71,58,52,43,60,39,20,30.03,29.93,31,4,32,0.00
2013-7-7,97,80,68,62,53,47,59,41,19,30.07,29.95,30,3,30,0.03
2013-7-8,100,84,68,58,48,35,64,33,12,30.13,30.00,13,2,14,0.00
2013-7-9,104,89,73,41,32,21,30,15,6,30.18,30.03,24,4,24,0.00
2013-7-10,106,90,71,51,31,23,30,14,6,30.11,29.93,22,3,22,0.00
2013-7-11,93,82,72,63,55,47,71,42,25,30.06,29.99,25,6,25,0.05
2013-7-12,92,78,67,66,60,53,80,56,28,30.10,29.97,19,3,21,0.39
2013-7-13,94,81,69,65,57,46,75,47,25,30.14,30.02,27,4,29,0.01
2013-7-14,98,86,73,58,52,42,58,34,15,30.13,29.98,24,4,24,0.00
2013-7-15,98,84,72,63,54,46,74,37,17,30.09,29.92,26,5,26,0.03
2013-7-16,93,80,70,64,58,52,80,51,27,30.13,30.02,20,3,21,0.00
2013-7-17,98,83,70,64,56,50,62,43,22,30.19,30.06,21,4,21,0.02
2013-7-18,96,83,73,60,56,50,62,41,25,30.17,30.06,26,4,26,0.00
2013-7-19,98,86,73,57,53,46,55,35,18,30.12,29.94,21,4,22,0.00
2013-7-20,99,87,73,57,51,42,53,32,16,30.05,29.88,29,4,34,0.00
2013-7-21,101,85,75,56,52,44,49,34,18,30.07,29.92,33,6,33,0.00
2013-7-22,94,83,70,60,55,49,60,40,23,30.10,29.98,21,5,21,0.00
2013-7-23,87,79,74,58,55,51,55,45,30,30.10,30.03,25,5,31,0.00
2013-7-24,100,85,73,63,54,41,64,38,14,30.09,29.94,28,3,28,0.14
2013-7-25,100,85,70,62,52,43,71,37,16,30.12,30.01,14,2,14,0.00
2013-7-26,102,86,75,57,49,39,53,30,13,30.17,30.05,31,6,31,0.00
2013-7-27,90,78,68,67,58,52,85,52,30,30.16,30.01,32,4,32,0.44
2013-7-28,84,73,68,66,62,57,81,68,47,30.04,29.96,26,2,26,0.72
2013-7-29,89,76,64,62,55,48,78,51,27,30.14,30.04,17,3,17,0.00
2013-7-30,96,82,66,54,46,38,64,32,14,30.25,30.13,12,2,12,0.00
2013-7-31,99,84,69,52,47,39,56,29,14,30.24,30.06,15,3,15,0.00
2013-8-1,93,82,74,62,54,49,54,38,25,30.13,29.99,22,6,28,0.05
2013-8-2,96,79,70,64,57,52,66,48,25,30.11,29.98,36,5,36,0.08
2013-8-3,94,80,68,59,54,46,65,42,22,30.17,30.04,24,5,24,0.00
2013-8-4,96,80,68,60,50,36,60,38,15,30.15,30.06,28,4,28,0.01
2013-8-5,98,83,68,56,46,29,63,32,12,30.15,29.98,11,2,11,0.00
2013-8-6,88,81,73,52,42,29,48,26,13,30.12,30.02,22,5,23,0.00
2013-8-7,78,68,62,62,58,50,88,72,44,30.18,30.05,18,3,18,0.44
2013-8-8,92,77,63,61,51,31,87,49,12,30.11,29.96,11,2,11,0.00
2013-8-9,95,80,65,47,35,16,51,23,6,30.09,29.99,24,3,24,0.00
2013-8-10,86,78,67,59,48,34,76,38,21,30.23,30.06,20,4,25,0.06
2013-8-11,90,76,67,53,50,38,59,41,21,30.20,30.07,31,5,31,0.00
2013-8-12,92,79,64,54,48,35,65,38,17,30.17,30.02,22,3,22,0.00
2013-8-13,95,82,66,50,42,28,53,28,10,30.17,30.03,15,3,15,0.00
2013-8-14,101,83,66,42,35,22,35,19,9,30.15,30.00,16,3,16,0.00
2013-8-15,99,82,65,52,37,16,42,22,7,30.16,30.07,27,4,28,0.00
2013-8-16,100,84,70,52,49,42,52,31,16,30.17,30.03,13,3,13,0.00
2013-8-17,90,80,71,61,52,45,56,39,23,30.18,30.08,31,5,31,0.15
2013-8-18,92,80,67,56,51,42,66,41,19,30.19,30.04,11,2,12,0.00
2013-8-19,97,84,69,53,48,42,54,31,17,30.17,30.00,19,3,19,0.00
2013-8-20,96,86,72,57,50,43,60,31,17,30.10,29.96,18,3,18,0.01
2013-8-21,92,81,74,57,52,46,53,37,22,30.17,30.04,33,4,33,0.00
2013-8-22,91,81,70,60,53,47,67,40,23,30.18,30.02,11,2,13,0.01
2013-8-23,88,79,71,58,53,46,59,40,24,30.09,29.96,21,5,21,0.00
2013-8-24,87,76,68,56,53,49,60,45,29,30.13,30.02,23,4,25,0.00
2013-8-25,70,67,65,64,60,55,90,78,60,30.24,30.13,7,1,7,0.59
2013-8-26,75,68,64,66,63,59,90,83,66,30.24,30.13,12,1,12,0.19
2013-8-27,79,70,63,66,62,57,92,76,50,30.22,30.09,23,3,26,0.36
2013-8-28,88,75,64,63,60,53,89,62,32,30.17,30.06,9,2,9,0.00
2013-8-29,93,81,68,62,58,49,80,49,24,30.19,30.10,14,2,14,0.00
2013-8-30,90,80,72,66,61,57,83,53,34,30.19,30.06,25,3,25,0.12
2013-8-31,82,75,70,67,64,60,87,69,47,30.15,30.03,15,2,16,0.02
2013-9-1,86,77,69,67,63,59,82,64,44,30.12,30.01,19,2,20,0.06
2013-9-2,91,79,68,64,62,57,84,57,33,30.16,30.01,9,2,12,0.00
2013-9-3,94,82,71,61,56,49,62,42,23,30.16,30.04,11,2,14,0.00
2013-9-4,94,84,74,60,54,47,58,38,21,30.18,30.05,25,3,25,0.00
2013-9-5,94,82,70,58,54,45,64,40,19,30.19,30.07,18,3,20,0.00
2013-9-6,95,81,68,54,50,45,58,36,20,30.18,30.03,18,3,18,0.00
2013-9-7,92,78,68,61,52,48,70,43,23,30.13,29.98,28,3,28,0.02
2013-9-8,73,68,64,65,62,58,89,80,66,30.10,30.01,14,2,14,0.17
2013-9-9,72,67,65,64,62,60,89,83,71,30.03,29.94,10,1,10,0.06
2013-9-10,77,67,63,63,61,58,91,81,55,30.05,29.94,16,2,16,0.24
2013-9-11,74,66,61,62,60,58,93,83,61,30.12,30.04,18,2,19,0.56
2013-9-12,79,68,59,61,58,55,92,73,48,30.16,30.02,9,1,9,0.00
2013-9-13,83,72,60,58,55,51,85,59,36,30.05,29.89,10,2,10,0.00
2013-9-14,84,73,63,58,55,49,79,56,31,29.99,29.87,20,3,20,0.00
2013-9-15,81,71,62,60,56,50,84,62,36,30.08,29.98,11,2,11,0.00
2013-9-16,86,74,62,59,55,50,80,55,32,30.14,29.99,12,2,12,0.00
2013-9-17,90,79,69,58,52,45,60,41,22,30.03,29.83,22,5,22,0.00
2013-9-18,90,79,66,53,41,24,55,29,11,29.94,29.83,23,4,25,0.00
2013-9-19,84,71,57,43,36,28,54,30,15,30.06,29.94,15,2,16,0.00
2013-9-20,87,72,56,42,36,30,54,29,14,30.08,29.93,11,3,11,0.00
2013-9-21,88,76,61,48,44,37,50,33,18,30.02,29.80,26,5,26,0.00
2013-9-22,78,70,58,51,37,18,51,32,11,29.93,29.69,36,11,36,0.00
2013-9-23,76,65,53,38,34,27,55,34,17,30.11,29.93,14,2,14,0.00
2013-9-24,82,68,51,38,34,27,55,30,17,30.16,29.90,19,3,19,0.00
2013-9-25,85,74,62,36,29,21,32,21,10,29.91,29.64,35,10,35,0.00
2013-9-26,79,69,58,38,30,18,37,25,13,29.87,29.66,35,10,35,0.00
2013-9-27,67,58,50,27,24,20,40,28,19,30.16,29.86,20,5,20,0.00
2013-9-28,68,56,44,28,26,22,50,32,19,30.28,30.16,13,2,13,0.00
2013-9-29,76,61,44,33,28,21,52,30,15,30.24,30.05,11,2,11,0.00
2013-9-30,82,66,50,31,26,19,44,24,10,30.11,29.95,9,2,10,0.00
2013-10-1,81,66,50,34,28,22,43,25,12,30.08,29.95,8,2,9,0.00
2013-10-2,81,68,52,35,31,28,41,27,18,30.07,29.89,14,4,14,0.00
2013-10-3,81,67,51,40,30,16,38,26,11,30.04,29.72,32,10,36,0.00
2013-10-4,60,52,41,24,19,14,40,28,18,30.31,30.03,23,4,23,0.00
2013-10-5,62,51,40,26,23,20,47,33,21,30.41,30.30,12,2,13,0.00
2013-10-6,70,54,40,29,25,21,51,34,19,30.39,30.23,9,2,10,0.00
2013-10-7,72,58,43,34,30,24,54,36,21,30.25,30.01,10,2,10,0.00
2013-10-8,78,63,47,33,25,14,52,27,9,30.02,29.81,14,4,18,0.00
2013-10-9,74,65,56,42,28,19,57,27,13,29.84,29.72,32,8,32,0.00
2013-10-10,63,52,45,43,36,24,82,56,22,30.02,29.75,33,6,33,0.06
2013-10-11,65,54,43,38,34,31,69,49,29,30.10,30.02,6,2,11,0.00
2013-10-12,68,55,42,37,33,28,66,45,28,30.13,29.98,12,2,12,0.00
2013-10-13,72,58,43,38,31,24,64,39,17,30.05,29.89,31,5,31,0.00
2013-10-14,65,55,45,36,31,25,60,41,23,30.15,30.04,13,3,13,0.00
2013-10-15,61,52,42,32,29,26,58,42,30,30.14,30.05,17,3,17,0.00
2013-10-16,61,50,38,28,24,20,61,38,21,30.24,30.12,11,2,11,0.00
2013-10-17,66,53,36,28,22,17,54,32,18,30.17,29.99,13,2,13,0.00
2013-10-18,66,54,41,24,21,18,45,29,17,30.20,30.06,11,2,11,0.00
2013-10-19,66,52,39,27,24,21,53,34,20,30.24,30.08,10,2,10,0.00
2013-10-20,72,55,38,25,22,18,47,29,14,30.10,29.94,10,2,10,0.00
2013-10-21,68,56,43,27,23,18,45,29,16,30.20,30.04,12,2,12,0.00
2013-10-22,67,54,41,28,24,20,48,33,17,30.28,30.14,10,2,10,0.00
2013-10-23,68,54,40,29,25,20,48,34,16,30.21,30.08,9,2,9,0.00
2013-10-24,68,56,44,37,30,25,47,37,26,30.19,30.08,13,2,13,0.00
2013-10-25,70,59,49,40,36,32,58,42,27,30.24,30.14,18,3,20,0.00
2013-10-26,70,57,44,36,33,30,64,43,23,30.31,30.19,9,2,9,0.00
2013-10-27,70,58,43,36,31,27,57,38,26,30.19,29.77,14,3,15,0.00
2013-10-28,70,63,57,28,25,22,32,24,16,29.80,29.69,40,14,41,0.00
2013-10-29,60,48,41,38,34,26,79,61,27,29.98,29.79,29,4,30,0.01
2013-10-30,55,48,41,37,32,26,77,57,34,30.09,29.97,18,4,18,0.00
2013-10-31,59,48,36,32,30,27,74,52,32,30.18,30.08,9,2,9,0.00
2013-11-1,62,50,38,33,28,23,64,45,24,30.29,30.17,10,2,10,0.00
2013-11-2,63,49,36,31,27,24,65,44,25,30.26,29.94,8,1,8,0.00
2013-11-3,69,53,38,32,25,16,60,37,14,29.94,29.80,20,3,20,0.00
2013-11-4,51,46,37,35,22,12,64,41,24,30.00,29.89,17,2,17,0.00
2013-11-5,50,42,33,25,13,6,49,31,18,30.30,30.00,11,2,12,0.00
2013-11-6,53,41,28,18,13,8,49,33,20,30.43,30.30,10,2,10,0.00
2013-11-7,57,44,30,20,17,13,50,35,22,30.44,30.20,8,1,9,0.00
2013-11-8,64,47,33,24,19,15,48,33,18,30.22,30.05,8,1,8,0.00
2013-11-9,64,50,35,22,19,16,46,31,16,30.22,30.11,8,1,8,0.00
2013-11-10,62,49,37,26,22,18,48,36,22,30.31,30.20,8,1,8,0.00
2013-11-11,63,49,36,28,25,22,56,40,24,30.36,30.26,8,1,8,0.00
2013-11-12,62,49,34,30,25,21,59,41,25,30.47,30.35,9,1,9,0.00
2013-11-13,62,49,39,30,27,23,56,42,28,30.36,30.15,10,1,10,0.00
2013-11-14,62,49,35,31,27,23,67,44,23,30.18,29.86,9,1,9,0.00
2013-11-15,62,49,36,36,26,20,56,42,26,29.86,29.64,20,2,22,0.00
2013-11-16,64,49,37,31,28,24,67,45,24,29.88,29.68,25,4,25,0.00
2013-11-17,62,51,42,33,31,28,64,48,33,30.16,29.88,11,1,11,0.00
2013-11-18,58,47,35,35,31,27,75,55,38,30.25,30.09,7,1,7,0.00
2013-11-19,61,49,41,35,32,28,64,52,35,30.10,29.92,10,0,11,0.00
2013-11-20,51,46,40,40,36,31,78,67,60,29.97,29.89,5,0,5,0.01
2013-11-21,54,48,43,45,42,40,89,81,62,30.07,29.92,9,1,9,0.29
2013-11-22,47,38,34,43,34,31,91,86,77,30.19,30.07,16,3,16,0.94
2013-11-23,39,37,33,36,34,31,92,89,85,30.19,30.12,12,1,12,0.44
2013-11-24,43,39,37,37,35,32,91,85,78,30.19,30.13,7,0,7,0.16
2013-11-25,49,40,32,37,33,28,90,78,53,30.33,30.15,8,1,8,0.00
2013-11-26,49,39,32,39,34,28,88,80,63,30.42,30.32,8,1,9,0.00
2013-11-27,48,38,31,36,32,28,89,80,62,30.34,30.17,6,0,6,0.00
2013-11-28,44,39,33,36,33,29,88,80,70,30.27,30.17,11,1,11,0.00
2013-11-29,42,41,38,35,34,32,79,76,73,30.36,30.27,8,1,8,0.00
2013-11-30,41,40,39,34,33,32,78,76,73,30.39,30.30,8,1,8,0.00
2013-12-1,41,39,39,33,32,31,79,75,71,30.42,30.32,9,1,10,0.00
2013-12-2,45,39,34,34,32,30,84,76,66,30.33,29.88,7,2,10,0.00
2013-12-3,56,43,30,37,31,26,89,68,36,29.89,29.41,30,4,43,0.00
2013-12-4,55,33,23,32,18,5,86,57,35,30.08,29.41,45,8,47,0.12
2013-12-5,32,25,17,16,11,3,76,57,36,30.15,25.72,18,1,18,0.00
2013-12-6,33,25,18,18,10,4,70,53,37,30.11,29.99,11,2,11,0.00
2013-12-7,37,30,24,29,21,15,86,68,45,30.02,29.70,25,2,27,0.04
2013-12-8,31,26,17,21,10,2,69,52,31,30.09,29.84,18,3,19,0.02
2013-12-9,29,21,13,9,5,0,69,52,31,30.44,30.08,9,1,10,0.00
2013-12-10,29,20,13,12,9,5,73,61,39,30.44,30.26,10,1,10,0.00
2013-12-11,32,23,15,14,12,8,76,63,40,30.46,30.32,12,2,12,0.00
2013-12-12,33,25,16,18,14,10,78,65,45,30.46,30.18,9,1,9,0.00
2013-12-13,34,26,19,20,18,12,80,70,56,30.24,30.10,9,1,9,0.00
2013-12-14,42,29,19,26,20,14,82,70,45,30.44,30.24,9,1,10,0.00
2013-12-15,41,31,22,24,21,15,80,68,49,30.45,30.36,9,2,10,0.00
2013-12-16,42,32,23,27,23,18,82,72,49,30.45,30.35,12,1,12,0.00
2013-12-17,42,32,24,28,24,19,83,73,53,30.46,30.29,8,1,8,0.00
2013-12-18,40,33,26,29,26,20,83,74,59,30.29,29.87,8,1,8,0.00
2013-12-19,44,35,27,30,28,22,85,74,58,29.87,29.70,8,0,8,0.00
2013-12-20,46,38,32,34,30,19,86,73,47,29.82,29.75,11,1,11,0.00
2013-12-21,50,40,28,24,22,18,73,51,34,29.99,29.72,31,4,31,0.00
2013-12-22,45,37,27,21,19,15,68,49,31,30.30,29.99,14,2,14,0.00
2013-12-23,46,35,25,25,22,18,76,61,39,30.42,30.29,9,1,9,0.00
2013-12-24,47,36,27,27,24,20,78,63,41,30.36,30.22,8,1,8,0.00